Resultados

1500 Electronico
Fecha Serie Viento Presión Humedad Temperatura
11-05-2019 Final_A
Puesto Andanivel Nombre Dia Mes Año Pais Marca
01 Alvarez Emanuel Alejandro 8 12 2000 ER 4.00.49 -
02 Toth Mauricio 5 9 2001 FAM 4.01.31 -
03 Perez Lazarte Leandro Leonel 14 1 2001 TUC 4.01.60 -
04 Marquez Cesar Alex 14 8 2000 COR 4.01.73 -
05 Vega German 4 1 2002 BA 4.07.99 -
06 Cordoba Joaquin 19 11 2001 BA 4.09.20 -
07 Mendieta Jorge 18 10 2001 ER 4.10.27 -
08 Sotelo Alarcon Ezequiel 14 9 2001 CTS 4.10.84 -
09 Medina Colombo, Bruno Ignacio 26 11 2002 CTS 4.15.03 -
10 Romero Matias 24 11 2001 BA 4.15.62 -
11 Zabala Santiago 23 8 2001 SF 4.16.08 -
12 Deluca Lorenzo 28 4 2000 FAM 4.17.12
13 Rudolf Brian Ruben 27 1 2000 BA 4.20.41 -
14 Parco Luis 18 9 2001 LRI 4.22.02 -
15 Ferreira Nicolas 1 1 2000 MZA 4.23.04 -
16 Moreno Nahuel 3 11 2001 SJ 4.28.22 -
17 Moreno Agustin Federico 14 6 2003 RN 4.33.18 -
18 Reyes Alvaro Leonel 5 2 2003 CTS 4.34.56 -
19 Ramires Francisco Gabriel 13 6 2001 CTS 4.42.65
20 Toledo Mauro 22 7 2003 MZA 4.45.12 -
21 Medina Axel Leonel 31 7 2002 RN 5.01.72 -
22 Polican Hugo Juan Pablo 20 3 2003 SJ 5.11.54 -
23 Perrone Di Silvestro Elias Natanael 25 3 2002 MZA 5.31.37 -
99 Aguer Eduardo Matias 18 12 2001 CHA DNF
99 Gutierrez Enzo Damian 26 2 2003 RN DNS
99 Van Der Hock Dylan 24 5 2002 ER DNF
99 Alegre Diego Facundo 7 9 2000 CTS DNS